Location: Newark
(45.6833°N, 12.6333°E)
Time: 18:22:07
(UTC+00:00)

N. Korean satellite - Pass Details

Date: 18 November 2019
Orbit: 455 x 507 km, 97.2° (Epoch: 13 December)

Event Time Altitude Azimuth Distance (km) Brightness Sun altitude
Rises 04:58:41 0° 14° (NNE) 2,621 10.3 -12.9°
Reaches altitude 10° 05:00:48 10° 17° (NNE) 1,728 9.4 -12.5°
Maximum altitude 05:04:31 70° 101° (ESE) 537 6.9 -11.9°
Drops below altitude 10° 05:08:09 10° 186° (S) 1,694 9.4 -11.3°
Sets 05:10:13 0° 189° (S) 2,564 10.3 -10.9°
